{"data":{"norad_id":39239,"epoch":"2026-09-20T05:04:26.947200Z","epoch_age_seconds":58477,"freshness":"FRESH","line1":"1 39239U 13046A   26263.21142300  .00000005  00000+0  90792-4 0  9997","line2":"2 39239  63.3842 205.0958 0434637  12.3426 348.7847 13.45515079641077","mean_motion":13.45515079,"eccentricity":0.0434637,"inclination_deg":63.3842,"raan_deg":205.0958,"arg_perigee_deg":12.3426,"mean_anomaly_deg":348.7847,"bstar":9.0792e-5,"rev_number":64107,"period_min":107.02221197478,"perigee_km":764.26435682181,"apogee_km":1413.346236626,"semimajor_km":7466.9422967239,"source":"CELESTRAK","updated_at":"2026-09-20T09:00:13.919086Z"}}